Miscellaneous Local Product
Issued by NWS Hastings, NE

Home | Current Version | Previous Version | Text Only | Print | Product List | Glossary On
Versions: 1 2 3 4 5 6 7 8 9 10 11 12 13 14 15 16 17 18 19 20 21 22 23 24 25 26 27 28 29 30 31 32 33 34 35 36 37 38 39 40 41 42 43 44 45 46 47 48 49 50
205
AXUS43 KGID 221602
MISGRI

GID CWA HOURLY WEATHER ROUNDUP
NATIONAL WEATHER SERVICE HASTINGS NE
1000 AM CST MON JAN 22 2018

NOTE: "FAIR" INDICATES FEW OR NO CLOUDS BELOW 12,000 FEET WITH NO
SIGNIFICANT WEATHER AND/OR OBSTRUCTIONS TO VISIBILITY.

...SOUTH CENTRAL NEBRASKA...

CITY           SKY/WX    TMP DP  RH WIND       PRES   REMARKS
GRAND ISLAND   FOG       27  27 100 NW37G51   29.63R VSB 1/4 WCI   9
KEARNEY        SNOW      28  26  92 N29G47    29.71R VSB 1/4 WCI  12
HASTINGS       FOG       28  26  92 N37G49    29.62R VSB 1/4 WCI  11
ORD            CLOUDY    27  23  85 N26G37    29.74R FOG     WCI  12
YORK           HVY SNOW  28  28 100 N26G33    29.55R VSB 1/4 WCI  13
AURORA         CLOUDY    28  28  98 N39G45    29.61R WCI  10
LEXINGTON      CLOUDY    30  26  83 NW13      29.79R WCI  20
HOLDREGE       CLOUDY    29  28  99 NW10      29.72R WCI  19
HEBRON         LGT SNOW  32  29  90 N26G37    29.56R WCI  18

...NEBRASKA PANHANDLE...

CITY           SKY/WX    TMP DP  RH WIND       PRES   REMARKS
CHADRON        MOSUNNY   17   8  67 W6        30.02S WCI   9
ALLIANCE       PTSUNNY   25  16  68 NW16      29.96R WCI  12
SCOTTSBLUFF    MOSUNNY   18   8  65 W10       30.02R WCI   6
SIDNEY         MOSUNNY   21  11  65 NW18      29.97R WCI   6

...WESTERN AND NORTH CENTRAL NEBRASKA...

CITY           SKY/WX    TMP DP  RH WIND       PRES   REMARKS
VALENTINE      PTSUNNY   25  20  81 NW22G31   29.89F WCI  10
AINSWORTH        N/A     25  23  93 NW23G29   29.85R WCI  10
ONEILL         CLOUDY    23  23  97 N24G32    29.79R WCI   7
BROKEN BOW     CLOUDY    28  23  81 NW28G43   29.77R HAZE    WCI  13
IMPERIAL       MOSUNNY   26  19  74 NW21      29.91R WCI  12
NORTH PLATTE   MIX PCPN  28  21  75 NW21      29.87R WCI  15
MCCOOK         CLOUDY    29  24  82 NW28G36   29.86R HAZE    WCI  14

...EASTERN NEBRASKA...

CITY           SKY/WX    TMP DP  RH WIND       PRES   REMARKS
NORFOLK        FOG       25  24  96 N31G51    29.60F VSB 1/4 WCI   8
SO SIOUX CITY  FOG       29  29 100 N23       29.58S VSB 1/4 WCI  15
TEKAMAH        SNOW      32  31  96 N37G45    29.48R VSB 1/4 WCI  16
COLUMBUS       SNOW      28  27  96 MISG      29.54F VSB 1/4
ALBION         HVY SNOW  26  24  92 N25G39    29.66R VSB 1/4 WCI  10
OMAHA EPPLEY   LGT SNOW  34  32  92 N21G28    29.43S FOG     WCI  22
OFFUTT AFB     CLOUDY    35  33  95 N12G21    29.41S WCI  26
MILLARD        LGT SNOW  35  33  94 N13G21    29.44S WCI  26
LINCOLN        HVY SNOW  31  30  96 N33G44    29.48S VSB 1/4 WCI  15
NEBRASKA CITY  CLOUDY    35  35 100 NW13      29.41S WCI  26
BEATRICE       LGT RAIN  34  32  93 N31       29.47S WCI  20
FALLS CITY     CLOUDY    35  34  96 NW12      29.40F FOG     WCI  27

...NORTHERN KANSAS...

CITY           SKY/WX    TMP DP  RH WIND       PRES   REMARKS
GOODLAND       LGT SNOW  25  18  74 NW29G37   29.90R WCI   8
HILL CITY      FOG       31  30  96 NW29G40   29.80R VSB 1/2 WCI  16
NORTON         CLOUDY    30  27  86 N25G33    29.79  WCI  16
PHILLIPSBURG   LGT SNOW  32  32 100 NW26G36   29.75R VSB 3/4 WCI  18
SMITH CENTER   SNOW      30  28  93 NW35G43   29.66R VSB 1/2 WCI  14
BELOIT         CLOUDY    34  28  80 NW31G39   29.61R WCI  20
HAYS           SNOW      32  30  92 NW32G40   29.74R VSB 1/2 WCI  17
RUSSELL        SNOW      33  32  96 NW40G48   29.69R VSB 1/4 WCI  17
CONCORDIA      CLOUDY    33  29  85 NW25G39   29.56R WCI  20
SALINA         CLOUDY    35  32  88 NW25G37   29.59R WCI  23
TOPEKA         LGT RAIN  36  35  96 SW7       29.46S WCI  30



USA.gov is the U.S. government's official web portal to all federal, state and local government web resources and services.